Location: West Sayville
(40.7279°N, 73.0976°W)
Time: 04:15:18
(UTC+00:00)

Cosmos 2227 Rocket - Pass Details

Date: 29 October 2020
Orbit: 839 x 845 km, 71.0° (Epoch: 27 November)

Event Time Altitude Azimuth Distance (km) Brightness Sun altitude
Rises 23:41:38 0° 329° (NNW) 3,405 5.8 -21.3°
Reaches altitude 10° 23:44:12 10° 323° (NW) 2,467 5.1 -21.8°
Maximum altitude 23:49:29 42° 254° (WSW) 1,185 3.4 -22.8°
Drops below altitude 10° 23:54:45 10° 185° (S) 2,456 4.6 -23.8°
Sets 23:57:18 0° 178° (S) 3,387 5.3 -24.3°
